Weather Roundup
Issued by NWS Chicago, IL

Home | Current Version | Previous Version | Text Only | Print | Product List | Glossary Off
Versions: 1 2 3 4 5 6 7 8 9 10 11 12 13 14 15 16 17 18 19 20 21 22 23 24 25 26 27 28 29 30 31 32 33 34 35 36 37 38 39 40 41 42 43 44 45 46 47 48 49 50

000
NZUS59 KLOT 020000
HRRLOT

CHICAGO AREA WEATHER ROUNDUP
NATIONAL WEATHER SERVICE CHICAGO/ROMEOVILLE IL
700 PM CDT WED OCT 01 2014

NOTE: "FAIR" INDICATES FEW OR NO CLOUDS BELOW 12,000 FEET WITH NO
SIGNIFICANT WEATHER AND/OR OBSTRUCTIONS TO VISIBILITY.

* THESE STATIONS ARE NOT UNDER NWS QUALITY CONTROL. THEY ALSO MAY NOT
  REPORT WEATHER SUCH AS PRECIPITATION OR FOG.

ILZ005-006-012>014-019>023-020100-
NORTHEAST ILLINOIS

CITY           SKY/WX    TMP DP  RH WIND       PRES   REMARKS
OHARE          MOCLDY    66  54  65 E6        29.90R
6HR MIN TEMP:  66; 6HR MAX TEMP:  70;

MIDWAY         NOT AVBL
AURORA         MOCLDY    69  54  58 E14       29.88R
6HR MIN TEMP:  69; 6HR MAX TEMP:  74;

LANSING*       PTCLDY    65  53  66 SE8       29.91F
WAUKEGAN       NOT AVBL
DUPAGE AIRPORT MOCLDY    67  55  65 E7        29.88S
6HR MIN TEMP:  67; 6HR MAX TEMP:  73;

WHEELING       MOCLDY    63  54  72 E3        29.93R
6HR MIN TEMP:  63; 6HR MAX TEMP:  69;

NORTHERLY IS     N/A     64  57  78 SE7         N/A
$$

WIZ051-052-058>065-066-070>072-020100-
SOUTHEAST WISCONSIN

CITY           SKY/WX    TMP DP  RH WIND       PRES   REMARKS
MILWAUKEE      CLOUDY    59  53  80 SE9       29.93R
6HR MIN TEMP:  59; 6HR MAX TEMP:  62;

KENOSHA*       MOCLDY    60  54  80 E7        29.93R
RACINE*        MOCLDY    60  54  80 SE8       29.94R
WAUKESHA       CLOUDY    57  50  77 SE8       29.93R
$$

INZ001>003-010>013-019-020-020100-
NORTHWEST INDIANA

CITY           SKY/WX    TMP DP  RH WIND       PRES   REMARKS
GARY*          MOCLDY    66  54  63 SE5       29.92R
MICHIGAN CITY* NOT AVBL
RENSSELAER*    NOT AVBL
$$

LMZ740>746-020100-
SOUTHERN LAKE MICHIGAN

STATION/POSITION TIME  SKY/WX   TEMP WIND        PRES    VSBY
                                AIR  DIR/SP/G
                 (UTC)          (F)  (DEG/KT/KT) (MB)    (MI)
HARRISON CRIB    2300            65  140/ 16/ 18   N/A
BURNHAM HARBOR   NOT AVBL
CALUMET HARBOR   2300            68  130/  6/  9 1011.9R
BURNS HARBOR     NOT AVBL
MICHIGAN CITY    2300            66  110/  9/ 13   N/A
$$

ABBREVIATIONS USED IN REMARKS
   TC - TEMPERATURE IN CELSIUS
  WCI - WIND CHILL INDEX
   HX - HEAT INDEX
  VSB - VISIBILITY
$$



USA.gov is the U.S. government's official web portal to all federal, state and local government web resources and services.